| time (UTC) | temp C | wind direction | speed KPH | gust KPH | rain 1hr cm | rain 24hr cm | rain mn cm | humidity % | barometer mb |
| 20260906022205 | 23 | 215 | 3.2 | 3.2 | 0.00 | 0.00 | 0.00 | 85 | 1011.6 |
| 20260906021705 | 23 | 196 | 1.6 | 3.2 | 0.00 | 0.00 | 0.00 | 84 | 1011.4 |
| 20260906020204 | 23 | 245 | 3.2 | 4.8 | 0.00 | 0.00 | 0.00 | 84 | 1011.3 |
| 20260906015704 | 23 | 215 | 1.6 | 3.2 | 0.00 | 0.00 | 0.00 | 83 | 1011.0 |
| 20260906015204 | 24 | 214 | 3.2 | 3.2 | 0.00 | 0.00 | 0.00 | 81 | 1011.0 |
| 20260906014705 | 24 | 132 | 0.0 | 3.2 | 0.00 | 0.00 | 0.00 | 79 | 1011.0 |
| 20260906014206 | 24 | 128 | 0.0 | 3.2 | 0.00 | 0.00 | 0.00 | 78 | 1011.0 |
| 20260906013705 | 24 | 329 | 0.0 | 0.0 | 0.00 | 0.00 | 0.00 | 78 | 1010.8 |
| 20260906013205 | 25 | 309 | 0.0 | 0.0 | 0.00 | 0.00 | 0.00 | 77 | 1010.8 |
| 20260906012704 | 25 | 44 | 0.0 | 3.2 | 0.00 | 0.00 | 0.00 | 76 | 1011.0 |
| 20260906012205 | 25 | 44 | 0.0 | 3.2 | 0.00 | 0.00 | 0.00 | 76 | 1010.9 |
| 20260906011707 | 25 | 308 | 1.6 | 3.2 | 0.00 | 0.00 | 0.00 | 75 | 1011.1 |
| 20260906011205 | 25 | 98 | 1.6 | 3.2 | 0.00 | 0.00 | 0.00 | 75 | 1011.0 |
| 20260906010705 | 25 | 284 | 0.0 | 1.6 | 0.00 | 0.00 | 0.00 | 74 | 1011.0 |
| 20260906010205 | 25 | 276 | 0.0 | 3.2 | 0.00 | 0.00 | 0.00 | 74 | 1011.1 |
| 20260906005205 | 25 | 168 | 1.6 | 3.2 | 0.00 | 0.00 | 0.00 | 73 | 1011.1 |
| 20260906004705 | 25 | 98 | 1.6 | 4.8 | 0.00 | 0.00 | 0.00 | 73 | 1011.1 |
| 20260906004205 | 25 | 204 | 3.2 | 4.8 | 0.00 | 0.00 | 0.00 | 72 | 1011.2 |
| 20260906003705 | 25 | 236 | 1.6 | 8.0 | 0.00 | 0.00 | 0.00 | 73 | 1011.2 |
| 20260906002705 | 27 | 224 | 4.8 | 8.0 | 0.00 | 0.00 | 0.00 | 69 | 1011.6 |
| 20260906002205 | 27 | 201 | 3.2 | 8.0 | 0.00 | 0.00 | 0.00 | 65 | 1012.0 |
| 20260906001705 | 28 | 250 | 4.8 | 8.0 | 0.00 | 0.00 | 0.00 | 63 | 1011.9 |
| 20260906001205 | 30 | 305 | 4.8 | 8.0 | 0.00 | 0.00 | 0.00 | 63 | 1011.6 |
| 20260906000705 | 30 | 269 | 1.6 | 3.2 | 0.00 | 0.00 | 0.00 | 62 | 1011.6 |
| 20260905235204 | 31 | 74 | 1.6 | 3.2 | 0.00 | 0.00 | 0.00 | 57 | 1010.8 |
| 20260905234705 | 31 | 174 | 1.6 | 3.2 | 0.00 | 0.00 | 0.00 | 56 | 1010.7 |
| 20260905234205 | 31 | 177 | 1.6 | 3.2 | 0.00 | 0.00 | 0.00 | 55 | 1010.6 |
| 20260905233704 | 31 | 143 | 1.6 | 8.0 | 0.00 | 0.00 | 0.00 | 55 | 1010.7 |
| 20260905233206 | 32 | 88 | 1.6 | 8.0 | 0.00 | 0.00 | 0.00 | 54 | 1010.5 |
| 20260905232706 | 32 | 112 | 3.2 | 8.0 | 0.00 | 0.00 | 0.00 | 53 | 1010.5 |
| 20260905232205 | 32 | 122 | 1.6 | 8.0 | 0.00 | 0.00 | 0.00 | 52 | 1010.4 |
| 20260905231705 | 32 | 197 | 1.6 | 8.0 | 0.00 | 0.00 | 0.00 | 52 | 1010.2 |
| 20260905231204 | 32 | 152 | 1.6 | 8.0 | 0.00 | 0.00 | 0.00 | 52 | 1010.1 |
| 20260905230704 | 33 | 112 | 3.2 | 8.0 | 0.00 | 0.00 | 0.00 | 51 | 1010.2 |
| 20260905230205 | 33 | 100 | 1.6 | 4.8 | 0.00 | 0.00 | 0.00 | 50 | 1010.2 |
| 20260905225704 | 33 | 129 | 1.6 | 4.8 | 0.00 | 0.00 | 0.00 | 49 | 1010.3 |
| 20260905225205 | 33 | 135 | 3.2 | 8.0 | 0.00 | 0.00 | 0.00 | 48 | 1010.2 |
| 20260905224706 | 33 | 139 | 3.2 | 8.0 | 0.00 | 0.00 | 0.00 | 47 | 1010.3 |
| 20260905224205 | 33 | 142 | 3.2 | 8.0 | 0.00 | 0.00 | 0.00 | 47 | 1010.5 |
| 20260905223705 | 34 | 155 | 4.8 | 8.0 | 0.00 | 0.00 | 0.00 | 45 | 1010.5 |
| 20260905223204 | 34 | 139 | 1.6 | 3.2 | 0.00 | 0.00 | 0.00 | 46 | 1010.3 |
| 20260905222705 | 34 | 112 | 1.6 | 4.8 | 0.00 | 0.00 | 0.00 | 45 | 1010.5 |
| 20260905222204 | 34 | 83 | 1.6 | 4.8 | 0.00 | 0.00 | 0.00 | 45 | 1010.5 |
| 20260905221704 | 34 | 99 | 1.6 | 9.7 | 0.00 | 0.00 | 0.00 | 46 | 1010.4 |
| 20260905221205 | 33 | 141 | 1.6 | 9.7 | 0.00 | 0.00 | 0.00 | 46 | 1010.5 |
| 20260905220205 | 33 | 190 | 1.6 | 9.7 | 0.00 | 0.00 | 0.00 | 48 | 1010.5 |
| 20260905215706 | 34 | 121 | 4.8 | 9.7 | 0.00 | 0.00 | 0.00 | 48 | 1010.5 |
| 20260905212704 | 34 | 82 | 3.2 | 8.0 | 0.00 | 0.00 | 0.00 | 47 | 1010.7 |
| 20260905212205 | 35 | 345 | 3.2 | 8.0 | 0.00 | 0.00 | 0.00 | 45 | 1010.8 |
| 20260905211704 | 34 | 225 | 0.0 | 8.0 | 0.00 | 0.00 | 0.00 | 43 | 1010.9 |
| 20260905211204 | 34 | 62 | 4.8 | 8.0 | 0.00 | 0.00 | 0.00 | 45 | 1010.8 |
| 20260905210705 | 33 | 127 | 1.6 | 12.9 | 0.00 | 0.00 | 0.00 | 46 | 1010.8 |
| 20260905210205 | 34 | 109 | 4.8 | 12.9 | 0.00 | 0.00 | 0.00 | 45 | 1011.0 |
| 20260905205704 | 35 | 92 | 6.4 | 11.3 | 0.00 | 0.00 | 0.00 | 43 | 1010.6 |
| 20260905205205 | 33 | 116 | 6.4 | 11.3 | 0.00 | 0.00 | 0.00 | 47 | 1010.8 |
| 20260905204704 | 32 | 121 | 4.8 | 9.7 | 0.00 | 0.00 | 0.00 | 47 | 1010.6 |
| 20260905204204 | 32 | 142 | 0.0 | 9.7 | 0.00 | 0.00 | 0.00 | 51 | 1011.1 |
| 20260905203705 | 32 | 64 | 3.2 | 9.7 | 0.00 | 0.00 | 0.00 | 51 | 1011.2 |
| 20260905203205 | 33 | 113 | 3.2 | 9.7 | 0.00 | 0.00 | 0.00 | 51 | 1011.0 |
| 20260905202705 | 33 | 119 | 3.2 | 9.7 | 0.00 | 0.00 | 0.00 | 50 | 1011.0 |
| 20260905201705 | 33 | 90 | 4.8 | 14.5 | 0.00 | 0.00 | 0.00 | 53 | 1011.3 |
| 20260905201204 | 34 | 86 | 8.0 | 14.5 | 0.00 | 0.00 | 0.00 | 51 | 1011.4 |
| 20260905200704 | 34 | 111 | 4.8 | 14.5 | 0.00 | 0.00 | 0.00 | 52 | 1011.2 |
| 20260905200205 | 34 | 77 | 6.4 | 12.9 | 0.00 | 0.00 | 0.00 | 52 | 1011.2 |
| 20260905195705 | 34 | 87 | 4.8 | 16.1 | 0.00 | 0.00 | 0.00 | 50 | 1011.4 |
| 20260905195204 | 35 | 108 | 8.0 | 16.1 | 0.00 | 0.00 | 0.00 | 48 | 1011.2 |
| 20260905194705 | 35 | 113 | 3.2 | 12.9 | 0.00 | 0.00 | 0.00 | 45 | 1011.4 |
| 20260905194204 | 37 | 175 | 3.2 | 12.9 | 0.00 | 0.00 | 0.00 | 41 | 1011.3 |
| 20260905193705 | 37 | 104 | 4.8 | 12.9 | 0.00 | 0.00 | 0.00 | 41 | 1011.3 |
| 20260905193205 | 37 | 185 | 4.8 | 8.0 | 0.00 | 0.00 | 0.00 | 39 | 1011.3 |
| 20260905192704 | 37 | 223 | 3.2 | 9.7 | 0.00 | 0.00 | 0.00 | 40 | 1011.2 |
| 20260905192205 | 37 | 202 | 3.2 | 9.7 | 0.00 | 0.00 | 0.00 | 40 | 1011.3 |
| 20260905191704 | 37 | 170 | 4.8 | 11.3 | 0.00 | 0.00 | 0.00 | 38 | 1011.3 |
| 20260905191204 | 38 | 232 | 4.8 | 11.3 | 0.00 | 0.00 | 0.00 | 38 | 1011.9 |
| 20260905190704 | 37 | 131 | 4.8 | 9.7 | 0.00 | 0.00 | 0.00 | 40 | 1011.8 |
| 20260905190204 | 37 | 221 | 4.8 | 9.7 | 0.00 | 0.00 | 0.00 | 41 | 1011.8 |
| 20260905185704 | 36 | 85 | 3.2 | 9.7 | 0.00 | 0.00 | 0.00 | 42 | 1011.7 |
| 20260905185205 | 35 | 161 | 3.2 | 9.7 | 0.00 | 0.00 | 0.00 | 42 | 1011.6 |
| 20260905184704 | 36 | 199 | 8.0 | 9.7 | 0.00 | 0.00 | 0.00 | 42 | 1011.8 |
| 20260905184204 | 36 | 188 | 3.2 | 8.0 | 0.00 | 0.00 | 0.00 | 42 | 1011.9 |
| 20260905183704 | 36 | 264 | 3.2 | 11.3 | 0.00 | 0.00 | 0.00 | 43 | 1011.9 |
| 20260905183204 | 35 | 99 | 1.6 | 14.5 | 0.00 | 0.00 | 0.00 | 44 | 1012.1 |
| 20260905182705 | 35 | 332 | 3.2 | 14.5 | 0.00 | 0.00 | 0.00 | 45 | 1012.1 |
| 20260905182204 | 35 | 134 | 1.6 | 8.0 | 0.00 | 0.00 | 0.00 | 45 | 1012.3 |
| 20260905181205 | 36 | 141 | 4.8 | 11.3 | 0.00 | 0.00 | 0.00 | 43 | 1012.1 |
| 20260905180704 | 37 | 100 | 8.0 | 11.3 | 0.00 | 0.00 | 0.00 | 42 | 1012.1 |
| 20260905180204 | 36 | 63 | 3.2 | 8.0 | 0.00 | 0.00 | 0.00 | 44 | 1012.4 |
| 20260905175704 | 35 | 113 | 3.2 | 4.8 | 0.00 | 0.00 | 0.00 | 47 | 1012.4 |
| 20260905175204 | 35 | 347 | 1.6 | 9.7 | 0.00 | 0.00 | 0.00 | 45 | 1012.5 |
| 20260905174705 | 36 | 118 | 3.2 | 9.7 | 0.00 | 0.00 | 0.00 | 44 | 1012.7 |
| 20260905174204 | 35 | 132 | 6.4 | 14.5 | 0.00 | 0.00 | 0.00 | 46 | 1012.7 |
| 20260905173704 | 35 | 225 | 1.6 | 14.5 | 0.00 | 0.00 | 0.00 | 47 | 1012.4 |
| 20260905173204 | 36 | 115 | 6.4 | 11.3 | 0.00 | 0.00 | 0.00 | 46 | 1012.6 |
| 20260905172704 | 36 | 112 | 4.8 | 11.3 | 0.00 | 0.00 | 0.00 | 46 | 1012.6 |
| 20260905172204 | 35 | 148 | 3.2 | 9.7 | 0.00 | 0.00 | 0.00 | 47 | 1012.8 |
| 20260905171205 | 35 | 130 | 4.8 | 12.9 | 0.00 | 0.00 | 0.00 | 49 | 1013.0 |
| 20260905170704 | 35 | 126 | 8.0 | 14.5 | 0.00 | 0.00 | 0.00 | 50 | 1013.1 |
| 20260905170204 | 34 | 138 | 8.0 | 14.5 | 0.00 | 0.00 | 0.00 | 50 | 1013.1 |
| 20260905165704 | 34 | 144 | 9.7 | 14.5 | 0.00 | 0.00 | 0.00 | 49 | 1013.2 |
| 20260905165204 | 35 | 108 | 4.8 | 11.3 | 0.00 | 0.00 | 0.00 | 49 | 1013.3 |
| 20260905164705 | 34 | 115 | 3.2 | 9.7 | 0.00 | 0.00 | 0.00 | 50 | 1013.3 |
| 20260905164204 | 33 | 290 | 3.2 | 9.7 | 0.00 | 0.00 | 0.00 | 50 | 1013.4 |
| 20260905163704 | 34 | 245 | 3.2 | 11.3 | 0.00 | 0.00 | 0.00 | 50 | 1013.4 |
| 20260905163204 | 33 | 115 | 6.4 | 11.3 | 0.00 | 0.00 | 0.00 | 52 | 1013.4 |
| 20260905162704 | 33 | 101 | 6.4 | 12.9 | 0.00 | 0.00 | 0.00 | 52 | 1013.6 |
| 20260905161704 | 32 | 158 | 1.6 | 11.3 | 0.00 | 0.00 | 0.00 | 54 | 1013.5 |
| 20260905161204 | 32 | 124 | 4.8 | 11.3 | 0.00 | 0.00 | 0.00 | 54 | 1013.8 |
| 20260905160705 | 32 | 212 | 3.2 | 8.0 | 0.00 | 0.00 | 0.00 | 54 | 1013.8 |
| 20260905155704 | 31 | 142 | 3.2 | 8.0 | 0.00 | 0.00 | 0.00 | 59 | 1013.7 |
| 20260905155205 | 31 | 316 | 3.2 | 4.8 | 0.00 | 0.00 | 0.00 | 56 | 1014.0 |
| 20260905154704 | 31 | 148 | 1.6 | 4.8 | 0.00 | 0.00 | 0.00 | 61 | 1014.2 |
| 20260905153204 | 29 | 166 | 1.6 | 4.8 | 0.00 | 0.00 | 0.00 | 67 | 1014.1 |
| 20260905152704 | 28 | 20 | 1.6 | 4.8 | 0.00 | 0.00 | 0.00 | 70 | 1014.2 |
| 20260905152204 | 28 | 29 | 3.2 | 4.8 | 0.00 | 0.00 | 0.00 | 73 | 1014.1 |
| 20260905151706 | 28 | 160 | 3.2 | 4.8 | 0.00 | 0.00 | 0.00 | 74 | 1014.5 |
| 20260905151204 | 28 | 172 | 1.6 | 4.8 | 0.00 | 0.00 | 0.00 | 74 | 1014.2 |
| 20260905150706 | 28 | 176 | 3.2 | 4.8 | 0.00 | 0.00 | 0.00 | 75 | 1014.3 |
| 20260905150204 | 28 | 95 | 3.2 | 4.8 | 0.00 | 0.00 | 0.00 | 75 | 1014.4 |
| 20260905145704 | 27 | 249 | 1.6 | 4.8 | 0.00 | 0.00 | 0.00 | 76 | 1014.3 |
| 20260905145204 | 27 | 60 | 1.6 | 8.0 | 0.00 | 0.00 | 0.00 | 78 | 1014.2 |
| 20260905144705 | 27 | 131 | 3.2 | 8.0 | 0.00 | 0.00 | 0.00 | 78 | 1014.5 |
| 20260905144204 | 27 | 139 | 1.6 | 4.8 | 0.00 | 0.00 | 0.00 | 77 | 1014.3 |
| 20260905143704 | 27 | 109 | 0.0 | 3.2 | 0.00 | 0.00 | 0.00 | 77 | 1014.4 |
| 20260905142704 | 26 | 151 | 0.0 | 3.2 | 0.00 | 0.00 | 0.00 | 79 | 1014.5 |
| 20260905142204 | 26 | 240 | 1.6 | 3.2 | 0.00 | 0.00 | 0.00 | 79 | 1014.5 |
| 20260905141704 | 27 | 128 | 1.6 | 3.2 | 0.00 | 0.00 | 0.00 | 80 | 1014.5 |
| 20260905141204 | 26 | 82 | 0.0 | 3.2 | 0.00 | 0.00 | 0.00 | 80 | 1014.6 |
| 20260905140704 | 26 | 172 | 0.0 | 3.2 | 0.00 | 0.00 | 0.00 | 81 | 1014.3 |
| 20260905140204 | 26 | 161 | 1.6 | 3.2 | 0.00 | 0.00 | 0.00 | 81 | 1014.4 |
| 20260905135704 | 26 | 147 | 3.2 | 3.2 | 0.00 | 0.00 | 0.00 | 81 | 1014.4 |
| 20260905135204 | 26 | 206 | 1.6 | 3.2 | 0.00 | 0.00 | 0.00 | 81 | 1014.4 |
| 20260905134204 | 26 | 189 | 1.6 | 3.2 | 0.00 | 0.00 | 0.00 | 81 | 1014.5 |
| 20260905133705 | 25 | 124 | 1.6 | 3.2 | 0.00 | 0.00 | 0.00 | 82 | 1014.3 |
| 20260905133205 | 25 | 129 | 1.6 | 3.2 | 0.00 | 0.00 | 0.00 | 83 | 1014.4 |
| 20260905132704 | 25 | 113 | 1.6 | 3.2 | 0.00 | 0.00 | 0.00 | 84 | 1014.6 |
| 20260905132204 | 25 | 163 | 1.6 | 3.2 | 0.00 | 0.00 | 0.00 | 85 | 1014.7 |
| 20260905131704 | 25 | 71 | 0.0 | 3.2 | 0.00 | 0.00 | 0.00 | 85 | 1014.8 |
| 20260905131204 | 25 | 149 | 0.0 | 3.2 | 0.00 | 0.00 | 0.00 | 85 | 1014.8 |
| 20260905130704 | 24 | 178 | 1.6 | 3.2 | 0.00 | 0.00 | 0.00 | 86 | 1014.7 |
| 20260905130204 | 24 | 165 | 1.6 | 3.2 | 0.00 | 0.00 | 0.00 | 87 | 1014.8 |
| 20260905125704 | 24 | 208 | 0.0 | 1.6 | 0.00 | 0.00 | 0.00 | 87 | 1014.6 |
| 20260905125206 | 23 | 124 | 0.0 | 1.6 | 0.00 | 0.00 | 0.00 | 88 | 1014.8 |
| 20260905123704 | 23 | 206 | 1.6 | 3.2 | 0.00 | 0.00 | 0.00 | 90 | 1014.7 |
| 20260905122204 | 22 | 212 | 0.0 | 3.2 | 0.00 | 0.00 | 0.00 | 95 | 1014.6 |
| 20260905121204 | 21 | 144 | 0.0 | 3.2 | 0.00 | 0.00 | 0.00 | 96 | 1014.7 |
| 20260905120204 | 21 | 130 | 0.0 | 1.6 | 0.00 | 0.00 | 0.00 | 96 | 1014.7 |
| 20260905115704 | 21 | 356 | 0.0 | 1.6 | 0.00 | 0.00 | 0.00 | 96 | 1014.6 |
| 20260905115206 | 21 | 281 | 0.0 | 1.6 | 0.00 | 0.00 | 0.00 | 96 | 1014.6 |
| 20260905114705 | 21 | 342 | 0.0 | 3.2 | 0.00 | 0.00 | 0.00 | 96 | 1014.5 |
| 20260905113704 | 21 | 214 | 0.0 | 3.2 | 0.00 | 0.00 | 0.00 | 96 | 1014.4 |
| 20260905112704 | 21 | 130 | 0.0 | 1.6 | 0.00 | 0.00 | 0.00 | 96 | 1014.0 |
| 20260905112204 | 21 | 279 | 0.0 | 1.6 | 0.00 | 0.00 | 0.00 | 96 | 1013.6 |
| 20260905111704 | 21 | 309 | 0.0 | 1.6 | 0.00 | 0.00 | 0.00 | 96 | 1013.8 |
| 20260905105704 | 21 | 354 | 0.0 | 1.6 | 0.00 | 0.00 | 0.00 | 96 | 1013.5 |
| 20260905105204 | 21 | 77 | 0.0 | 1.6 | 0.00 | 0.00 | 0.00 | 96 | 1013.3 |
| 20260905104704 | 21 | 106 | 0.0 | 1.6 | 0.00 | 0.00 | 0.00 | 96 | 1013.2 |
| 20260905104204 | 21 | 232 | 0.0 | 1.6 | 0.00 | 0.00 | 0.00 | 96 | 1013.2 |
| 20260905103705 | 21 | 217 | 0.0 | 3.2 | 0.00 | 0.00 | 0.00 | 96 | 1013.4 |
| 20260905103204 | 21 | 216 | 1.6 | 3.2 | 0.00 | 0.00 | 0.00 | 96 | 1013.2 |
| 20260905102704 | 21 | 237 | 0.0 | 3.2 | 0.00 | 0.00 | 0.00 | 96 | 1013.1 |
| 20260905102204 | 21 | 215 | 1.6 | 3.2 | 0.00 | 0.00 | 0.00 | 96 | 1013.2 |
| 20260905101704 | 21 | 225 | 0.0 | 3.2 | 0.00 | 0.00 | 0.00 | 96 | 1013.2 |
| 20260905101204 | 21 | 222 | 0.0 | 3.2 | 0.00 | 0.00 | 0.00 | 96 | 1013.2 |
| 20260905100704 | 21 | 216 | 3.2 | 3.2 | 0.00 | 0.00 | 0.00 | 96 | 1013.0 |
| 20260905100204 | 21 | 310 | 0.0 | 3.2 | 0.00 | 0.00 | 0.00 | 95 | 1013.2 |
| 20260905095704 | 21 | 132 | 0.0 | 3.2 | 0.00 | 0.00 | 0.00 | 95 | 1013.1 |
| 20260905095204 | 21 | 217 | 0.0 | 3.2 | 0.00 | 0.00 | 0.00 | 95 | 1013.1 |
| 20260905094704 | 21 | 46 | 0.0 | 1.6 | 0.00 | 0.00 | 0.00 | 95 | 1013.0 |
| 20260905094204 | 21 | 318 | 0.0 | 3.2 | 0.00 | 0.00 | 0.00 | 96 | 1013.0 |
| 20260905092704 | 21 | 233 | 1.6 | 3.2 | 0.00 | 0.00 | 0.00 | 96 | 1012.7 |
| 20260905092204 | 21 | 252 | 1.6 | 4.8 | 0.00 | 0.00 | 0.00 | 96 | 1012.9 |
| 20260905091704 | 21 | 218 | 1.6 | 4.8 | 0.00 | 0.00 | 0.00 | 95 | 1012.8 |
| 20260905091204 | 21 | 169 | 1.6 | 4.8 | 0.00 | 0.00 | 0.00 | 95 | 1012.8 |
| 20260905090704 | 21 | 147 | 1.6 | 3.2 | 0.00 | 0.00 | 0.00 | 95 | 1012.9 |
| 20260905090204 | 21 | 258 | 1.6 | 3.2 | 0.00 | 0.00 | 0.00 | 95 | 1012.9 |
| 20260905085704 | 21 | 234 | 1.6 | 3.2 | 0.00 | 0.00 | 0.00 | 95 | 1012.8 |
| 20260905085205 | 21 | 231 | 0.0 | 1.6 | 0.00 | 0.00 | 0.00 | 95 | 1013.0 |
| 20260905084704 | 21 | 234 | 0.0 | 3.2 | 0.00 | 0.00 | 0.00 | 94 | 1013.0 |
| 20260905084204 | 21 | 204 | 0.0 | 3.2 | 0.00 | 0.00 | 0.00 | 95 | 1013.0 |
| 20260905083704 | 21 | 160 | 1.6 | 1.6 | 0.00 | 0.00 | 0.00 | 94 | 1012.9 |
| 20260905082704 | 22 | 325 | 0.0 | 3.2 | 0.00 | 0.00 | 0.00 | 95 | 1013.1 |
| 20260905082204 | 22 | 0 | 0.0 | 3.2 | 0.00 | 0.00 | 0.00 | 95 | 1013.1 |
| 20260905081203 | 22 | 124 | 0.0 | 3.2 | 0.00 | 0.00 | 0.00 | 94 | 1012.9 |
| 20260905075705 | 22 | 219 | 1.6 | 3.2 | 0.00 | 0.00 | 0.00 | 95 | 1012.9 |
| 20260905075204 | 22 | 244 | 1.6 | 3.2 | 0.00 | 0.00 | 0.00 | 94 | 1013.1 |
| 20260905074703 | 22 | 202 | 1.6 | 4.8 | 0.00 | 0.00 | 0.00 | 94 | 1013.0 |
| 20260905074203 | 22 | 207 | 0.0 | 4.8 | 0.00 | 0.00 | 0.00 | 94 | 1013.2 |
| 20260905073704 | 22 | 174 | 1.6 | 3.2 | 0.00 | 0.00 | 0.00 | 94 | 1012.9 |
| 20260905072203 | 22 | 32 | 0.0 | 3.2 | 0.00 | 0.00 | 0.00 | 93 | 1013.1 |
| 20260905071704 | 22 | 275 | 1.6 | 3.2 | 0.00 | 0.00 | 0.00 | 93 | 1013.0 |
| 20260905071204 | 22 | 223 | 1.6 | 3.2 | 0.00 | 0.00 | 0.00 | 93 | 1013.3 |
| 20260905070704 | 22 | 217 | 0.0 | 3.2 | 0.00 | 0.00 | 0.00 | 93 | 1013.1 |
| 20260905070204 | 22 | 182 | 1.6 | 3.2 | 0.00 | 0.00 | 0.00 | 93 | 1013.2 |
| 20260905065704 | 22 | 104 | 0.0 | 3.2 | 0.00 | 0.00 | 0.00 | 93 | 1013.2 |
| 20260905065204 | 22 | 127 | 1.6 | 3.2 | 0.00 | 0.00 | 0.00 | 93 | 1013.0 |
| 20260905064704 | 22 | 49 | 1.6 | 3.2 | 0.00 | 0.00 | 0.00 | 93 | 1013.2 |
| 20260905064204 | 22 | 281 | 0.0 | 4.8 | 0.00 | 0.00 | 0.00 | 93 | 1013.3 |
| 20260905063704 | 22 | 226 | 1.6 | 4.8 | 0.00 | 0.00 | 0.00 | 93 | 1013.2 |
| 20260905063204 | 22 | 163 | 3.2 | 4.8 | 0.00 | 0.00 | 0.00 | 92 | 1013.2 |
| 20260905062704 | 22 | 184 | 1.6 | 4.8 | 0.00 | 0.00 | 0.00 | 92 | 1013.1 |
| 20260905062205 | 22 | 339 | 1.6 | 3.2 | 0.00 | 0.00 | 0.00 | 92 | 1013.1 |
| 20260905061703 | 23 | 129 | 1.6 | 8.0 | 0.00 | 0.00 | 0.00 | 92 | 1013.0 |
| 20260905061204 | 23 | 276 | 0.0 | 8.0 | 0.00 | 0.00 | 0.00 | 92 | 1013.1 |
| 20260905060703 | 23 | 255 | 1.6 | 3.2 | 0.00 | 0.00 | 0.00 | 91 | 1013.1 |
| 20260905060204 | 23 | 234 | 1.6 | 3.2 | 0.00 | 0.00 | 0.00 | 91 | 1013.4 |
| 20260905055204 | 23 | 60 | 0.0 | 3.2 | 0.00 | 0.00 | 0.00 | 91 | 1013.4 |
| 20260905054204 | 23 | 59 | 1.6 | 3.2 | 0.00 | 0.00 | 0.00 | 90 | 1013.5 |
| 20260905052704 | 23 | 157 | 1.6 | 4.8 | 0.00 | 0.00 | 0.00 | 90 | 1013.3 |
| 20260905051703 | 23 | 188 | 3.2 | 4.8 | 0.00 | 0.00 | 0.00 | 89 | 1013.1 |
| 20260905051203 | 23 | 98 | 1.6 | 4.8 | 0.00 | 0.00 | 0.00 | 89 | 1013.4 |
| 20260905050704 | 23 | 214 | 0.0 | 4.8 | 0.00 | 0.00 | 0.00 | 88 | 1013.4 |
| 20260905050204 | 23 | 343 | 1.6 | 4.8 | 0.00 | 0.00 | 0.00 | 88 | 1013.5 |
| 20260905045703 | 23 | 313 | 1.6 | 3.2 | 0.00 | 0.15 | 0.00 | 88 | 1013.2 |
| 20260905044204 | 24 | 201 | 1.6 | 3.2 | 0.00 | 0.15 | 0.00 | 88 | 1013.3 |
| 20260905043204 | 24 | 198 | 0.0 | 1.6 | 0.00 | 0.15 | 0.00 | 86 | 1013.3 |
| 20260905042704 | 24 | 115 | 0.0 | 1.6 | 0.00 | 0.15 | 0.00 | 85 | 1013.2 |
| 20260905042203 | 24 | 135 | 0.0 | 0.0 | 0.00 | 0.15 | 0.00 | 85 | 1013.5 |
| 20260905041704 | 24 | 55 | 0.0 | 1.6 | 0.00 | 0.15 | 0.00 | 85 | 1013.4 |
| 20260905041204 | 25 | 50 | 0.0 | 1.6 | 0.00 | 0.15 | 0.00 | 85 | 1013.4 |
| 20260905040703 | 25 | 44 | 0.0 | 1.6 | 0.00 | 0.15 | 0.00 | 85 | 1013.5 |
| 20260905040204 | 25 | 117 | 0.0 | 1.6 | 0.00 | 0.15 | 0.00 | 84 | 1013.4 |
| 20260905035203 | 25 | 224 | 0.0 | 1.6 | 0.00 | 0.15 | 0.00 | 83 | 1013.8 |
| 20260905034703 | 25 | 224 | 0.0 | 3.2 | 0.00 | 0.15 | 0.00 | 83 | 1013.5 |
| 20260905034204 | 25 | 255 | 0.0 | 3.2 | 0.00 | 0.15 | 0.00 | 82 | 1013.7 |
| 20260905033204 | 25 | 117 | 0.0 | 1.6 | 0.00 | 0.15 | 0.00 | 82 | 1013.5 |
| 20260905032705 | 25 | 108 | 0.0 | 1.6 | 0.00 | 0.15 | 0.00 | 81 | 1013.6 |
| 20260905032207 | 26 | 236 | 1.6 | 1.6 | 0.00 | 0.15 | 0.00 | 81 | 1013.9 |
| 20260905031705 | 26 | 137 | 0.0 | 0.0 | 0.00 | 0.15 | 0.00 | 80 | 1013.8 |
| 20260905031206 | 26 | 39 | 0.0 | 0.0 | 0.00 | 0.15 | 0.00 | 79 | 1013.9 |
| 20260905030705 | 26 | 104 | 0.0 | 1.6 | 0.00 | 0.15 | 0.00 | 79 | 1013.9 |
| 20260905030205 | 26 | 117 | 0.0 | 1.6 | 0.00 | 0.15 | 0.00 | 78 | 1013.9 |
| 20260905025705 | 26 | 129 | 0.0 | 1.6 | 0.00 | 0.15 | 0.00 | 78 | 1014.1 |
| 20260905025204 | 26 | 105 | 0.0 | 1.6 | 0.00 | 0.15 | 0.00 | 77 | 1014.0 |
| 20260905024704 | 26 | 230 | 0.0 | 0.0 | 0.00 | 0.15 | 0.00 | 77 | 1014.0 |
| 20260905023705 | 27 | 309 | 0.0 | 1.6 | 0.00 | 0.15 | 0.00 | 76 | 1014.2 |
| 20260905023204 | 27 | 129 | 0.0 | 3.2 | 0.00 | 0.15 | 0.00 | 76 | 1014.0 |
| 20260905022704 | 27 | 146 | 1.6 | 3.2 | 0.00 | 0.15 | 0.00 | 76 | 1014.2 |